Showing default

LARES-2, 53105

Orbit data source: Space-Track

LARES-2, 53105 is a payload satellite owned by ASI (IT) that was launched on Wed, 13 Jul 2022 UTC via a VEGA C launch vehicle from the French Guiana (FRGUI). Payload-class satellites include a variety of spacecraft equipped with specific instruments for various scientific and technological missions. These include communications satellites like Starlink; space stations such as the ISS; scientific satellites like the Hubble; Earth observation satellites from companies like Planet Labs, Umbra, and HawkEye 360; GPS; miniature CubeSats for education and research; and military/defense satellites.

Loading next visibility...
Identifier
53105, 2022-080A
Orbit
Active
Country
Flag of ITIT
Related business
Manufacturer
OHB-I
Mission
Operational Civil Technology
Bus & Motor
LARES, Unknown motor
Mass
295 kg wet, 295 kg dry
Launch date (UTC)
2022-07-13 (3 years ago)
Launch vehicle
VEGA C
Launch site
French Guiana (FRGUI)
Object type
Payload
Rocket body
Debris
Shape & HBR
Sphere, 0.2 m
Radar Cross Section
0.139 m², Medium (>0.1 m² and < 1m²)

Expand to show TLE details & history
Last TLE update: 1 week ago

TLE from 1 week ago
0 LARES-2
1 53105U 22080A   25298.39260325 -.00000022  00000-0  00000-0 0  9997
2 53105  70.1712  25.8333 0004098  38.9683 321.1310  6.38964991 76667
Epoch: 2025-10-25T09:25Z
TLE epoch observation values (Epoch: 2025-10-25T09:25:20.920Z)
Latitude
-0.00002°
Longitude
-149.52559°
Altitude
5,886.672 km
Speed
5.702 km/s
True Right ascension
01h 43m 20s
True Declination
0° 00' 00"
Sunlit
Object was in full shadow at epoch
Visualization orbit readout
Latitude
Unknown
Longitude
Unknown
Altitude
Unknown
Speed
Unknown
Apparent Right ascension
Unknown
Apparent Declination
Unknown
Sunlit
N/A
Visualization observer readout
Local Sidereal Time
16:25:53
Azimuth
Unknown
Elevation
Unknown
Doppler factor
Unknown
Orbital elements
Apogee altitude
5,893.064 km
Perigee altitude
5,883.01 km
Semi-major axis
12,266.174 km
Eccentricity
0.00041
Inclination
70.1712°
RAAN
25.8333°
Arg. of periapsis
38.9683°
True anomaly
321.10152°
Mean anomaly
321.131°
Eccentric anomaly
321.11626°
Mean motion
1.59764 °/min
Orbital period
225.33 mins
BSTAR
0
Loading maneuver chart data...
Computing Atmospheric mass density...
Loading historical data...
Loading historical data...
Loading historical data...
Loading historical data...
Loading historical data...
Loading historical data...
Loading historical data...

Documentation

Showing up to 5 results
|